星链-30530 (STARLINK-30530 )

导读

STARLINK-30530是美国SpaceX公司星链星座的成员,于2023年10月5日发射入轨。它属于低轨宽带通信卫星,属于第二代星链卫星,配备相控阵天线、霍尔推进器与自主避撞系统,依托星链星座组网,为全球尤其是偏远区域提供高速低时延互联网接入服务,单星设计使用寿命约5-7年,退役后会主动离轨在大气层焚毁,减少空间碎片影响。

基本信息
目录编号:
58005
目录名称:
STARLINK-30530
国际标识:
2023-153Q
轨道中心:
EARTH
卫星名称:
星链-30530
卫星全名:
星链-30530 (STARLINK-30530 )
卫星状态:
在轨 (已飞行1072 天)
发射日期:
2023-10-05 UTC
国别 :
美国 (US)
星等 :
--
该卫星已列入 空间交会检测服务 Space Conjunction Data Service (SCDS) ,当前飞行风险评估等级: 高风险
轨道信息
数据来源 国际轨道数据
星历时间: 2026-09-11T07:10:06+0800
18小时前
查看轨道信息
半长轴: 6861.203km
偏心率: 0.0002076
轨道倾角: 43.006°
近地点辐角 266.014°
升交点赤经 100.560°
平近点角 94.048°
近地点: 481.641km
远地点: 484.491km
周期: 94.267分钟
每日圈数: 15.275745
详细信息
固有亮度:
5
最大亮度:
0.3
卫星平台:
Starlink v2.0 mini
覆盖范围:
全球
运营商:
太空探索技术公司
运营商所在国:
美国
制造商(研发单位):
太空探索技术公司
制造商所在国:
美国
使用方式:
暂无
卫星简介
星链(Starlink)计划是由太空探索技术公司(SpaceX)提出的一个巨型低轨卫星互联网星座项目,计划在2019年至2024年间在太空搭建由约1.2万颗卫星组成的“星链”网络,其中1584颗将部署在地球上空550千米处的近地轨道,并从2020年开始工作。该卫星仍在工作。
2D轨道图
3D轨道图
轨道高度分析图
轨道倾角分析图
轨道综合分析图
查看轨道综合分析图
与全量物体交会距离演化趋势
与全量物体交会风险概率演化趋势